This demonstration page uses our WeatherBlox Daily Observations layout. Learn more.

Left ArrowRight Arrow

39.51506, -84.39828

Hourly Observations for August 19, 2021

Temp ( °F °C ) Dew Point ( °F °C ) Humidity (%) Winds ( mph kmh ) Pressure ( in mb ) Visibility ( mi km ) Precip ( " mm )
12:15 am 00:15 Clear 73 23 N/A N/A N N/A 30.11 1020 10 16 N/A
12:35 am 00:35 Clear 72 22 N/A N/A N N/A 30.11 1020 10 16 N/A
12:55 am 00:55 Clear 73 23 N/A N/A N N/A 30.10 1019 10 16 N/A
1:15 am 01:15 Clear 73 23 N/A N/A S 3 6 30.10 1019 7 11 N/A
1:35 am 01:35 Clear 73 23 N/A N/A S 3 6 30.10 1019 7 11 N/A
1:55 am 01:55 Clear 73 23 N/A N/A N N/A 30.09 1019 7 11 N/A
2:15 am 02:15 Clear 73 23 N/A N/A WSW 5 7 30.09 1019 10 16 N/A
2:35 am 02:35 Clear 72 22 N/A N/A SW 5 7 30.09 1019 7 11 N/A
2:55 am 02:55 Clear 73 23 N/A N/A N N/A 30.09 1019 10 16 N/A
3:15 am 03:15 Hazy 72 22 N/A N/A N N/A 30.09 1019 7 11 N/A
3:35 am 03:35 Hazy 72 22 N/A N/A N N/A 30.09 1019 7 11 N/A
3:55 am 03:55 Clear 73 23 N/A N/A N N/A 30.09 1019 10 16 N/A
4:15 am 04:15 Partly Cloudy 72 22 72 22 100 100 N N/A 30.09 1019 7 11 N/A
4:35 am 04:35 Partly Cloudy 73 23 N/A N/A NE 5 7 30.08 1019 10 16 N/A
4:55 am 04:55 Mostly Cloudy 73 23 N/A N/A N N/A 30.08 1019 10 16 N/A
5:15 am 05:15 Cloudy with Nearby Thunderstorms 73 23 N/A N/A WSW 9 15 30.09 1019 10 16 N/A
5:35 am 05:35 Cloudy with Heavy Rain 73 22.9 73 22.8 99 99 WNW 3 6 30.09 1019 7 11 0.02 0.51
5:55 am 05:55 Cloudy with Light Rain 72 22 N/A N/A NNW 5 7 30.09 1019 5 8 0.07 1.78
6:15 am 06:15 Cloudy with Thunderstorms 72 22 N/A N/A WSW 8 13 30.09 1019 7 11 0.02 0.51
6:35 am 06:35 Cloudy with Rain 72 22 N/A N/A SSW 8 13 30.10 1019 5 8 0.04 1.02
6:55 am 06:55 Cloudy with Light Rain 72 22 N/A N/A S 6 9 30.10 1019 7 11 0.06 1.52
7:15 am 07:15 Mostly Cloudy 72 22 N/A N/A S 5 7 30.10 1019 10 16 N/A
7:35 am 07:35 Sunny 72 22 N/A N/A SE 5 7 30.09 1019 10 16 N/A
7:55 am 07:55 Cloudy 72 22 N/A N/A N N/A 30.10 1019 7 11 N/A
8:15 am 08:15 Cloudy with Light Rain 72 22 N/A N/A N N/A 30.10 1019 10 16 N/A
8:35 am 08:35 Mostly Cloudy 72 22 N/A N/A N N/A 30.11 1020 10 16 N/A
8:55 am 08:55 Cloudy 72 22 N/A N/A WSW 3 6 30.11 1020 7 11 N/A
9:15 am 09:15 Cloudy 72 22 N/A N/A N N/A 30.11 1020 10 16 N/A
9:35 am 09:35 Cloudy 73 22.5 72 22.4 99 99 SSW 3 6 30.11 1020 10 16 N/A
9:55 am 09:55 Mostly Cloudy 73 22.6 72 22.1 97 97 SSW 5 7 30.11 1020 10 16 N/A
10:15 am 10:15 Cloudy 73 22.7 73 22.6 99 99 WSW 6 9 30.11 1020 10 16 N/A
10:35 am 10:35 Cloudy 73 22.7 73 22.5 99 99 SW 8 13 30.11 1020 10 16 N/A
10:55 am 10:55 Mostly Cloudy 73 22.8 73 22.5 98 98 WSW 3 6 30.12 1020 10 16 N/A
11:15 am 11:15 Partly Cloudy 73 23 73 22.9 99 99 W 3 6 30.11 1020 10 16 N/A
11:35 am 11:35 Mostly Cloudy 74 23.5 73 22.8 96 96 WSW 6 9 30.11 1020 10 16 N/A
11:55 am 11:55 Cloudy 74 23.5 73 22.9 96 96 W 5 7 30.11 1020 10 16 N/A
12:15 pm 12:15 Cloudy 75 23.8 73 22.9 95 95 WSW 5 7 30.11 1019 10 16 N/A
12:35 pm 12:35 Mostly Cloudy 75 24.1 73 23 94 94 SSW 5 7 30.11 1019 10 16 N/A
12:55 pm 12:55 Partly Cloudy 76 24.6 74 23.3 93 93 SW 5 7 30.08 1019 10 16 N/A
1:15 pm 13:15 Partly Cloudy 78 25.5 74 23.3 88 88 NW 3 6 30.08 1019 10 16 N/A
1:35 pm 13:35 Mostly Cloudy 80 26.8 74 23.2 81 81 SSW 6 9 30.08 1019 10 16 N/A
1:55 pm 13:55 Partly Cloudy 80 26.8 73 22.8 79 79 N N/A 30.08 1019 10 16 N/A
2:15 pm 14:15 Mostly Cloudy 81 27 72 22.1 75 75 N N/A 30.07 1018 10 16 N/A
2:35 pm 14:35 Cloudy 81 27.4 73 22.5 75 75 N N/A 30.07 1018 10 16 N/A
2:55 pm 14:55 Sunny 81 27 72 22.1 75 75 N N/A 30.06 1018 10 16 N/A
3:15 pm 15:15 Sunny 82 27.6 72 22.2 72 72 S 5 7 30.05 1018 10 16 N/A
3:35 pm 15:35 Mostly Cloudy 83 28.6 72 22.2 68 68 SW 3 6 30.04 1017 10 16 N/A
3:55 pm 15:55 Mostly Cloudy 84 29 73 22.5 68 68 SSW 7 11 30.03 1017 10 16 N/A
4:15 pm 16:15 Partly Cloudy 83 28.5 71 21.9 67 67 N N/A 30.03 1017 10 16 N/A
4:35 pm 16:35 Mostly Cloudy with Thunderstorms 83 28.1 71 21.6 68 68 N N/A 30.03 1017 10 16 N/A
4:55 pm 16:55 Cloudy 79 26.2 73 22.6 81 81 NW 7 11 30.02 1017 10 16 N/A
5:15 pm 17:15 Cloudy 77 25.1 73 22.7 87 87 N 5 7 30.03 1017 10 16 N/A
5:35 pm 17:35 Cloudy with Rain 76 24.4 76 24.3 99 99 ESE 13 20 30.03 1017 3 5 0.01 0.25
5:55 pm 17:55 Mostly Cloudy 77 25 74 23.5 91 91 ESE 7 11 30.02 1017 10 16 0.04 1.02
6:15 pm 18:15 Partly Cloudy 78 25.4 72 22.4 84 84 NE 3 6 30.02 1017 10 16 0.01 0.25
6:35 pm 18:35 Partly Cloudy 78 25.7 74 23.1 86 86 N 3 6 30.02 1017 10 16 0.01 0.25
6:55 pm 18:55 Cloudy 78 25.6 74 23.3 87 87 E 3 6 30.01 1016 10 16 0.01 0.25
7:15 pm 19:15 Sunny 77 25 75 24 94 94 NE 3 6 30.01 1016 10 16 N/A
7:35 pm 19:35 Sunny 78 25.4 76 24.3 94 94 NE 5 7 30.01 1016 10 16 N/A
7:55 pm 19:55 Partly Cloudy 78 25.3 76 24.4 95 95 N N/A 30.01 1016 10 16 N/A
8:15 pm 20:15 Sunny 77 24.9 77 24.8 99 99 E 5 7 30.01 1016 10 16 N/A
8:35 pm 20:35 Clear 75 24 N/A N/A E 5 7 30.02 1016 10 16 N/A
8:55 pm 20:55 Clear 73 23 N/A N/A N N/A 30.02 1017 10 16 N/A
9:15 pm 21:15 Clear 73 23 N/A N/A N N/A 30.02 1017 10 16 N/A
9:35 pm 21:35 Clear 72 22 N/A N/A N N/A 30.02 1017 7 11 N/A
9:55 pm 21:55 Hazy 72 22 N/A N/A NNE 5 7 30.03 1017 5 8 N/A
10:15 pm 22:15 Hazy 72 22 N/A N/A NW 3 6 30.03 1017 5 8 N/A
10:35 pm 22:35 Clear 72 22 N/A N/A N 3 6 30.03 1017 7 11 N/A
10:55 pm 22:55 Hazy 70 21 N/A N/A N N/A 30.03 1017 5 8 N/A
11:15 pm 23:15 Mostly Cloudy with Haze 70 21 N/A N/A NE 3 6 30.03 1017 5 8 N/A
11:35 pm 23:35 Cloudy with Haze 70 21 N/A N/A NNW 3 6 30.03 1017 5 8 N/A
11:55 pm 23:55 Cloudy with Haze 68 20 N/A N/A N N/A 30.03 1017 4 6 N/A

Powered by AerisWeather